Temp_Advection
nan nan nan nan nan nan nan nan nan nan nan nan nan nan nan nan nan nan nan nan nan nan nan nan nan nan nan nan nan nan nan nan nan nan nan nan nan nan nan nan nan nan nan nan nan nan nan nan nan nan nan nan nan nan
nan -0 0 0 0 -0 -0 0 1 1 1 1 0 0 0 1 0 -0 0 -0 -0 2 0 1 1 1 1 0 0 -0 0 -0 -0 -0 0 0 0 -0 0 0 0 -0 -0 -0 -0 -0 -0 0 0 0 0 0 0 nan
nan -0 -0 0 0 0 -0 0 0 0 0 0 0 0 0 0 -0 0 0 0 2 1 0 1 1 1 1 0 0 0 0 0 0 -0 -0 -0 -0 -0 0 0 -0 0 0 0 -0 0 0 0 0 0 0 0 0 nan
nan -0 -0 0 0 0 0 0 0 0 0 0 0 0 0 0 0 1 1 0 1 0 0 0 0 0 0 0 0 0 0 0 0 0 0 0 0 0 0 0 0 0 0 0 0 0 0 0 0 0 0 0 -0 nan
nan 0 -0 0 0 0 0 0 0 0 -0 -0 -0 0 0 0 0 0 0 0 1 0 -0 -0 0 -0 0 0 0 0 0 0 0 0 0 0 0 0 -0 0 -0 0 0 0 0 0 0 0 0 0 0 0 -0 nan
nan 1 0 0 0 0 0 0 0 0 -0 -0 0 -0 -0 0 0 0 0 0 0 0 -0 -0 0 -0 0 0 0 0 0 0 0 0 0 0 0 0 0 -0 -0 0 0 0 0 0 0 0 0 0 0 -0 -0 nan
nan 0 0 1 0 0 0 0 0 -0 -0 0 0 -0 0 0 0 0 0 0 0 0 -0 -0 -0 0 0 0 0 0 0 0 0 0 0 0 0 0 0 0 0 0 0 0 0 0 0 0 0 0 -0 -0 0 nan
nan 1 0 0 0 0 0 0 -0 -0 0 0 0 0 0 0 0 0 0 0 0 0 0 -0 0 0 0 0 0 0 0 0 0 0 0 0 0 0 0 0 0 0 0 0 0 0 0 0 0 0 -0 -0 -0 nan
nan 0 0 0 0 0 0 0 0 0 0 0 0 0 0 0 -0 0 0 0 0 0 0 -0 -0 0 -0 0 0 0 0 -0 -0 0 -0 0 0 -0 0 0 0 0 0 0 0 0 0 0 0 -0 -0 -0 -0 nan
nan 0 0 0 0 -0 -0 0 0 0 0 0 0 0 0 0 0 0 0 0 0 0 0 0 -0 0 0 -0 0 0 -0 -0 0 -0 0 0 -0 0 0 0 0 0 0 0 0 0 0 0 -0 -0 -0 -0 -0 nan
nan 0 0 -0 0 0 -0 -0 0 0 0 -0 -0 0 0 0 0 0 0 0 0 0 0 0 -0 -0 0 0 -0 0 -0 0 0 -0 0 0 0 0 0 0 0 0 0 0 0 0 0 -0 -0 -0 -0 -0 -0 nan
nan 0 0 0 0 0 0 0 -0 0 0 0 0 -0 0 0 0 0 0 -0 0 0 0 0 0 -0 -0 -0 -0 0 0 -0 -0 0 0 0 0 0 0 0 0 0 0 0 0 0 0 -0 -0 -0 -0 -0 -0 nan
nan 0 0 0 0 0 -0 0 0 -0 0 0 0 0 -0 0 0 0 0 0 -0 0 0 -0 0 0 0 0 -0 -0 0 -0 0 0 -0 0 0 0 0 0 0 0 0 0 0 -0 0 0 -0 -0 -0 -0 -0 nan
nan -0 0 -0 0 0 0 0 0 -0 0 0 0 -0 0 0 0 0 0 -0 -0 -0 -0 -1 -0 0 0 -0 0 0 0 -0 0 -0 0 0 0 -0 0 0 0 0 0 0 -0 -0 -0 -0 -0 -0 -0 -0 -0 nan
nan 0 0 0 0 0 0 0 0 0 0 0 0 0 0 0 0 0 0 0 0 0 -1 -0 -0 -0 -0 0 0 0 0 -0 -0 0 0 -0 0 0 0 0 0 0 0 0 0 -0 -0 -0 -0 0 0 -0 -0 nan
nan 0 0 -0 0 0 0 0 0 0 0 0 0 -0 0 0 0 0 -0 0 0 0 1 -0 -0 0 0 0 0 -0 0 0 0 0 0 0 0 0 0 0 0 0 0 0 -0 -0 -0 -0 -0 0 0 0 -0 nan
nan 0 0 0 0 0 0 0 0 0 1 0 -0 0 0 -0 -0 -0 0 0 0 -0 -0 0 -0 -0 -1 0 -0 0 0 0 0 -0 0 0 0 0 0 0 0 0 0 0 -0 -0 -0 -0 -0 -0 -0 -0 -0 nan
nan -0 0 0 -0 0 1 0 0 -0 -0 0 0 0 0 0 0 0 0 0 1 0 -0 -0 -0 0 -0 -0 0 0 0 -0 0 0 0 0 0 0 0 0 0 0 -0 -0 0 -0 -0 -0 -0 -0 -0 -0 -0 nan
nan 0 0 0 0 0 -0 -0 -0 -1 -0 0 0 0 0 0 0 0 0 0 0 0 0 -0 -0 0 0 0 0 -0 -0 -0 -0 0 0 0 0 0 0 0 0 0 0 0 -0 -0 -0 -0 -0 -0 -0 -0 0 nan
nan 0 1 1 1 -0 -1 -0 -0 -0 -0 0 0 0 0 0 0 0 0 0 0 0 0 0 0 0 0 -0 -0 -0 -0 -0 -0 -0 -0 0 0 0 0 0 0 0 -0 0 -0 -0 -0 -0 -0 -0 -0 -0 -0 nan
nan 1 1 1 0 -1 -1 -0 -0 -0 -0 -0 0 0 -0 0 0 0 0 0 0 0 0 0 0 0 0 0 0 0 0 0 0 0 0 0 0 0 0 0 0 0 0 0 0 -0 -0 -0 0 0 0 0 0 nan
nan 1 1 0 -1 -1 -0 -0 -0 -0 -0 0 0 -0 -0 0 0 0 0 0 0 0 0 0 0 0 0 0 0 0 0 0 0 0 0 0 0 0 0 0 0 -0 -0 -0 -0 0 0 0 -0 -0 -0 0 0 nan
nan 1 -0 -1 -0 -1 -0 0 0 -0 -0 0 -0 -0 -0 0 0 0 -0 0 0 0 0 0 0 0 0 0 0 0 0 0 0 0 0 0 0 0 0 0 0 0 -0 -0 -0 -0 -0 0 0 -0 0 0 0 nan
nan -1 -0 -0 -1 -0 0 0 0 0 0 -0 -0 -0 0 0 0 0 0 0 0 0 0 0 0 0 0 0 0 0 0 0 0 0 0 0 -0 0 0 0 0 0 -0 -0 -0 -0 0 0 0 0 0 0 0 nan
nan -1 -0 -0 0 -0 -0 0 0 -0 -0 0 0 0 -0 0 -0 0 0 0 0 0 0 0 0 0 0 0 0 0 0 0 0 0 -0 0 0 0 0 0 0 -0 -0 -0 -0 -0 -0 -0 0 0 0 0 -0 nan
nan -0 -0 0 0 -0 -0 -0 -0 -0 -0 -0 -0 0 0 0 0 0 -0 0 0 0 0 0 0 0 0 0 0 0 0 0 -0 -0 0 0 0 0 0 0 0 -0 -0 -0 -0 -0 -0 -0 -0 -0 -0 -0 -0 nan
nan 0 0 0 0 0 -0 -0 0 -0 -0 -0 -0 0 0 0 0 -0 0 0 0 0 0 0 0 0 0 0 0 0 0 0 0 0 0 0 -0 -0 -0 0 0 -0 -0 -0 -0 -0 -0 -0 -0 -0 -0 -0 -0 nan
nan 0 -0 -0 -0 -0 0 -0 -0 -0 -0 0 0 -0 0 0 0 0 0 0 0 0 0 0 0 0 0 0 0 0 0 0 0 0 0 -0 -0 -0 -0 -0 -0 -0 -0 -0 -0 -0 -0 -0 -0 -0 -0 -0 -0 nan
nan 0 -0 -1 -0 -1 -1 -0 0 0 0 0 -0 -0 0 0 0 0 0 0 0 0 0 0 0 0 0 0 0 0 0 0 0 -0 -0 -0 -0 -0 -0 -0 -0 0 0 0 -0 -0 -0 -0 0 0 0 -0 -0 nan
nan -0 -1 -1 -1 0 0 0 0 0 0 0 -0 -0 -0 -0 0 0 0 0 0 0 0 0 0 0 0 0 0 0 0 0 0 0 -0 -0 -0 -0 -0 -0 -0 -0 0 0 0 0 -0 -0 -0 -0 -0 -0 -0 nan
nan -0 -0 -1 -0 -0 -0 0 0 0 0 0 0 -0 -0 -0 0 0 0 0 0 0 0 0 0 0 0 0 0 0 0 0 0 0 0 -0 -0 -0 -0 -0 0 0 0 -0 -0 0 0 0 0 -0 -0 -0 -0 nan
nan -0 -1 -0 1 -0 -0 0 0 0 0 -0 -0 -0 -0 -0 0 0 0 0 -0 -0 0 0 0 0 0 0 0 0 0 -0 0 0 0 0 -0 -0 -0 -0 -0 -0 -0 -0 -0 -0 0 0 0 0 -0 -0 -0 nan
nan nan nan nan nan nan nan nan nan nan nan nan nan nan nan nan nan nan nan nan nan nan nan nan nan nan nan nan nan nan nan nan nan nan nan nan nan nan nan nan nan nan nan nan nan nan nan nan nan nan nan nan nan nan
Wind_Speed
18 17 15 16 9 10 15 23 25 26 26 27 30 27 27 29 30 30 32 29 26 12 19 18 23 16 11 9 4 10 6 3 2 3 3 4 4 4 1 2 5 6 7 4 2 1 8 7 4 5 3 2 9 6
20 19 19 14 15 11 11 15 18 20 19 19 20 20 20 22 25 30 38 36 31 32 7 19 22 21 19 12 11 15 1 5 9 3 1 2 2 1 3 3 1 3 5 4 8 5 2 8 3 4 6 6 5 7
27 20 22 17 14 14 12 10 12 13 13 14 15 15 13 17 23 30 39 39 34 20 9 10 9 14 14 14 14 9 7 9 7 6 6 2 3 3 4 5 3 4 6 3 0 1 4 6 5 5 4 4 6 10
27 24 21 20 17 13 13 9 8 7 9 8 12 12 10 9 10 15 25 24 24 6 5 3 8 7 8 9 10 11 5 9 7 8 3 2 2 7 3 0 3 4 8 4 5 3 3 5 6 5 5 7 10 12
24 27 24 22 19 13 9 7 3 6 5 7 7 9 11 9 7 8 10 11 21 9 4 3 2 2 4 5 7 8 7 8 6 5 3 2 2 2 1 0 4 9 5 4 4 2 2 1 3 4 6 9 12 15
25 25 27 25 19 12 9 8 9 6 6 8 10 12 10 9 9 8 3 11 11 10 2 2 1 2 2 2 4 5 6 6 5 4 3 2 3 3 2 3 3 7 6 6 2 3 2 3 4 5 7 11 13 15
26 24 27 24 19 15 14 14 10 9 8 8 8 12 14 8 9 8 4 4 14 7 3 3 1 2 5 6 5 4 4 2 3 3 3 2 3 4 2 3 3 6 6 4 3 2 1 3 3 6 9 12 13 14
27 24 23 24 24 20 19 17 17 15 12 7 7 8 11 12 7 9 10 3 10 7 4 3 0 2 6 2 2 2 2 2 0 1 1 3 3 3 4 3 5 8 7 4 2 1 2 3 5 8 11 13 14 16
27 26 23 21 24 21 18 17 14 13 13 13 11 6 6 6 3 4 10 11 14 8 5 4 4 3 7 3 2 2 1 0 1 1 3 4 2 5 3 7 11 10 6 4 3 3 3 4 7 9 11 13 15 18
28 27 25 24 27 27 26 21 14 13 14 14 14 6 6 8 7 8 6 4 6 6 5 4 5 3 8 4 2 3 0 0 1 2 3 2 3 8 5 5 9 9 6 3 3 4 5 6 7 9 12 14 16 18
29 28 26 25 22 30 26 22 18 17 16 16 8 6 7 15 10 6 4 3 2 1 5 6 4 6 7 3 3 5 2 1 1 3 2 2 3 3 8 8 9 7 4 2 3 3 4 6 9 12 13 14 16 17
30 29 27 26 23 29 29 24 21 21 17 12 10 14 13 5 4 3 2 0 2 4 7 9 6 6 7 5 4 5 2 1 4 5 1 3 2 7 11 9 7 5 3 2 2 3 5 8 11 14 16 16 16 17
30 28 28 26 27 28 30 26 24 20 17 13 3 5 4 2 2 5 6 3 2 8 12 11 6 6 6 5 5 3 3 4 3 1 3 3 6 11 10 9 7 5 3 2 3 5 8 10 12 14 14 15 16 17
30 29 28 28 25 24 23 27 25 23 15 4 6 4 4 3 4 4 2 2 3 6 19 19 9 4 4 3 4 4 1 2 1 2 5 2 13 13 10 8 6 4 3 3 6 9 11 11 10 11 13 15 18 19
29 28 28 25 24 27 21 29 27 25 7 5 5 5 5 3 2 2 3 6 5 15 26 12 7 4 2 3 1 4 2 4 5 4 2 7 16 12 10 8 5 3 4 7 8 9 8 9 10 10 13 15 18 18
26 23 28 27 26 30 26 30 28 21 5 5 3 3 4 5 2 5 6 5 13 25 16 4 4 3 1 3 3 6 5 6 3 3 7 17 15 11 7 5 3 5 7 6 5 6 7 8 10 12 14 16 17 17
26 22 29 25 27 27 23 31 14 7 6 4 3 4 5 4 2 4 6 9 21 20 2 4 4 4 5 2 2 3 4 2 6 10 16 14 10 8 6 4 5 5 3 3 5 5 7 9 12 13 13 13 14 15
30 25 28 32 33 32 30 12 6 4 4 4 4 5 5 4 6 5 4 15 17 10 4 1 6 2 4 4 2 2 2 7 11 13 11 10 8 5 4 4 3 3 3 4 5 6 8 10 11 11 12 14 13 12
31 27 30 31 31 24 6 4 3 6 4 5 9 8 5 5 5 6 7 17 10 11 8 4 0 2 2 2 2 7 12 11 13 12 10 7 5 4 3 2 2 3 3 4 6 7 8 10 10 11 13 13 12 12
24 24 31 33 32 7 6 5 6 6 4 5 7 8 6 5 8 9 12 12 12 8 3 3 3 5 4 3 4 7 13 10 13 12 9 7 5 4 3 2 1 2 3 4 5 7 8 8 10 10 11 12 12 11
34 32 32 30 14 8 7 5 5 5 7 5 10 4 4 8 6 6 7 10 4 3 3 3 6 8 8 7 10 12 9 10 8 5 6 8 7 5 3 2 2 3 4 4 5 6 8 8 8 9 9 10 10 11
33 33 20 13 6 6 7 6 8 7 4 7 5 4 4 2 3 5 7 3 4 4 5 8 10 10 11 12 12 10 8 8 8 6 6 6 6 5 3 2 2 2 3 4 5 6 6 7 8 8 8 9 8 8
33 25 9 6 6 5 5 6 4 3 4 4 4 3 2 2 4 8 2 2 3 5 8 11 13 13 12 10 9 8 7 7 6 5 4 5 4 3 3 3 2 2 3 3 5 5 5 6 6 6 7 7 7 8
19 7 5 4 5 4 5 3 4 5 5 3 2 2 1 2 4 1 1 2 3 7 10 12 12 12 10 9 7 6 5 5 4 5 5 4 4 4 4 3 3 3 3 4 5 5 4 4 4 5 5 6 6 7
7 7 5 6 4 5 3 2 3 4 2 1 3 1 2 3 1 1 1 2 7 9 11 11 10 8 6 6 6 5 4 4 4 5 4 4 4 4 4 4 3 3 3 4 4 3 3 3 3 4 4 5 5 6
6 6 4 2 2 3 3 3 3 4 3 2 2 3 2 2 1 2 1 3 6 9 9 8 7 5 5 5 4 5 4 4 5 5 4 4 3 4 3 3 4 4 4 5 4 3 3 3 3 3 4 4 5 5
4 2 4 4 4 6 6 6 5 4 3 3 3 3 2 2 2 1 3 6 8 10 9 8 6 5 4 4 4 4 4 4 3 3 3 2 2 2 3 4 5 5 5 5 4 4 4 4 4 4 4 4 4 4
5 4 3 3 7 6 3 4 3 2 2 1 3 2 4 2 2 4 4 7 9 9 8 7 5 5 4 4 4 3 3 2 2 1 2 2 3 3 4 5 6 6 6 6 5 4 5 5 4 4 5 5 6 7
5 5 5 7 6 8 7 4 2 2 1 1 2 2 3 2 4 6 8 8 9 8 6 5 4 3 3 3 3 4 4 4 4 4 3 3 3 4 5 6 6 7 6 6 6 7 6 6 6 6 7 7 8 8
5 5 5 5 4 2 4 4 6 7 7 6 6 6 7 7 7 8 7 6 6 5 4 3 3 2 2 2 3 3 3 4 4 3 2 3 4 5 6 7 7 7 7 7 8 8 8 8 8 7 7 6 7 7
3 3 5 6 5 4 8 10 11 10 8 10 10 8 8 6 6 5 4 4 3 3 3 3 3 3 2 3 3 3 2 2 2 1 2 3 6 8 7 6 6 6 6 6 7 8 7 7 6 6 6 6 7 9
5 5 5 4 4 6 2 2 3 3 3 3 4 4 4 3 2 2 2 1 0 1 3 4 3 3 3 3 2 2 2 2 2 4 6 1 4 8 6 3 3 3 4 4 5 5 5 5 6 6 7 8 9 11
5 9 8 7 5 3 2 3 2 3 4 3 4 4 4 3 2 2 1 2 1 1 1 1 1 2 2 2 3 4 4 4 5 7 8 7 5 9 9 7 9 9 8 8 9 10 11 12 13 13 14 14 15 16
Wind_Direction
244 258 271 264 270 227 205 203 210 216 223 231 241 242 242 241 240 231 237 239 233 240 240 237 237 216 200 194 176 158 127 171 141 191 195 216 204 225 169 188 184 181 165 204 138 203 273 158 133 185 155 305 304 271
241 244 245 261 256 271 236 210 201 198 201 204 206 219 228 234 231 233 234 235 242 238 253 226 228 231 231 229 218 179 247 158 176 113 266 116 195 135 177 249 277 253 206 187 187 217 166 185 220 229 293 277 271 295
251 235 245 249 259 257 269 223 206 203 200 203 200 201 212 223 223 224 231 233 232 229 238 215 212 218 219 217 210 184 204 176 191 167 153 179 221 133 185 228 211 243 193 225 104 196 196 224 247 247 264 286 307 316
244 248 247 233 245 253 254 253 200 214 210 218 207 198 202 198 206 222 225 233 228 190 227 195 205 206 215 219 221 220 211 185 185 195 178 172 220 200 217 223 214 212 160 194 257 250 255 249 245 260 276 300 312 315
248 251 246 224 236 231 247 257 198 254 244 230 239 222 193 186 177 202 225 222 204 194 150 145 181 266 233 210 210 211 206 204 174 174 185 214 206 185 153 279 237 191 193 179 241 169 211 228 239 259 293 305 313 317
239 243 248 220 214 208 220 192 206 209 233 224 230 238 225 192 179 173 154 201 196 209 109 130 169 44 92 131 153 167 183 177 174 165 178 222 227 215 223 237 240 205 207 215 191 178 239 254 247 275 300 310 319 322
229 239 242 221 198 197 198 199 200 192 197 197 200 201 214 203 194 191 164 190 198 216 166 106 74 92 144 153 140 153 170 187 182 173 203 186 196 224 243 243 177 189 187 169 168 192 226 247 271 296 311 315 321 322
222 232 237 222 202 183 188 196 201 204 194 203 194 187 197 199 191 201 226 188 191 166 175 122 341 125 162 147 107 127 135 178 131 185 177 186 172 211 246 200 174 178 179 184 199 253 262 271 290 308 313 317 322 327
220 221 230 235 201 181 186 186 179 188 190 186 181 174 184 218 220 199 214 199 198 211 182 166 157 171 158 116 103 103 166 86 289 199 235 174 194 226 226 189 191 191 191 186 206 265 277 291 306 313 320 325 327 329
218 217 219 222 206 188 179 174 176 177 175 165 156 147 171 175 158 159 151 196 213 219 195 168 140 128 152 140 125 124 57 357 275 245 172 196 255 246 223 203 191 188 193 202 244 266 280 297 311 321 327 330 329 327
214 213 215 216 230 200 184 181 177 179 170 169 174 149 155 154 141 166 201 179 194 255 193 162 156 131 164 127 146 204 161 170 42 264 178 253 266 185 180 168 168 175 192 224 244 270 298 308 316 322 326 327 328 329
211 209 210 211 219 207 190 182 181 184 176 177 170 129 135 176 157 158 148 359 190 217 173 151 149 133 138 141 124 173 148 111 246 152 198 257 232 167 170 169 169 176 189 216 267 297 309 314 318 320 325 326 330 333
208 206 204 206 209 194 191 188 180 182 177 158 150 134 140 166 136 191 188 246 248 175 181 161 130 137 132 156 106 130 132 211 131 214 238 237 158 164 169 173 176 182 194 235 285 304 310 314 318 320 323 325 329 334
203 203 200 199 201 207 216 185 180 181 172 186 170 142 186 183 244 197 171 141 154 181 159 144 108 125 128 117 146 131 151 105 164 242 235 212 178 165 170 178 193 205 245 284 302 311 316 319 325 324 326 328 332 336
196 199 196 199 199 199 190 184 184 184 166 190 184 185 194 181 129 179 158 148 136 156 152 122 94 130 81 98 88 101 80 243 219 232 232 167 164 169 172 182 197 230 275 296 309 318 318 325 328 330 329 332 335 336
189 190 195 193 196 185 179 180 183 180 181 176 193 102 127 133 160 170 182 155 155 159 153 139 118 92 136 130 122 210 161 224 237 204 159 156 161 165 177 193 232 274 290 304 316 319 324 329 328 333 338 337 338 334
178 185 184 183 185 190 181 179 164 156 170 149 102 132 139 89 80 174 167 168 164 169 149 115 152 184 117 66 254 199 213 227 164 151 151 161 166 169 185 238 272 276 286 304 317 328 330 332 335 338 341 342 340 341
180 173 171 174 178 177 170 162 146 135 91 108 133 121 134 110 132 154 186 169 166 186 144 115 135 169 188 191 230 209 165 139 144 147 154 160 169 191 224 230 248 274 304 315 316 327 332 336 340 341 346 346 346 343
171 172 178 181 180 164 125 110 120 98 85 101 123 137 141 148 166 176 182 178 173 152 135 128 43 235 226 218 203 164 164 158 163 159 165 177 193 195 203 224 261 292 307 308 322 332 336 336 343 346 347 345 348 351
173 171 178 182 182 138 99 81 90 90 122 142 152 147 138 141 149 149 160 156 148 142 152 176 207 192 156 151 141 160 165 170 170 167 181 184 187 200 204 205 239 301 312 318 325 331 338 341 341 338 336 344 348 348
163 168 178 183 149 93 97 106 89 92 119 116 127 118 98 130 135 142 148 161 164 172 178 183 162 152 145 149 158 159 160 166 179 206 219 195 198 203 202 190 272 297 313 323 323 323 328 332 335 340 343 345 344 345
155 164 158 160 84 80 85 84 107 107 108 119 108 87 105 86 128 144 153 174 183 171 173 167 164 160 158 157 158 166 174 182 194 203 195 198 208 206 212 230 271 309 324 319 316 320 327 332 336 346 348 348 348 349
164 165 122 81 84 66 99 97 90 93 113 133 111 80 57 158 169 154 124 181 187 184 179 173 167 163 164 163 167 173 178 179 187 198 209 213 225 233 246 257 276 287 304 315 320 322 330 340 344 348 354 359 1 2
145 100 76 84 85 110 129 89 101 102 113 108 102 112 215 148 151 131 180 190 187 170 165 166 166 165 165 170 174 179 185 190 201 216 221 226 243 252 250 256 259 257 293 319 320 318 327 341 349 355 1 10 11 15
88 23 60 59 87 111 95 95 95 82 106 149 118 167 188 164 163 171 215 162 167 164 161 163 166 172 178 186 192 196 203 208 218 236 243 250 262 261 252 244 243 257 284 307 305 314 332 341 349 355 1 7 5 13
78 23 55 91 95 99 154 113 149 142 125 122 81 129 129 128 161 230 52 145 156 162 167 174 183 189 191 195 203 211 221 231 242 252 252 254 262 255 244 237 242 262 277 293 297 302 308 315 322 330 341 353 359 1
86 35 67 69 97 105 94 84 98 98 101 148 174 151 128 134 231 129 143 155 163 169 174 178 184 187 190 203 211 223 233 245 254 255 251 248 262 270 262 252 248 257 265 278 285 289 290 292 300 307 314 321 327 337
79 62 94 61 71 62 98 71 50 58 74 66 135 80 150 160 166 164 165 163 163 164 167 172 177 187 200 210 224 237 251 262 265 251 257 277 287 291 284 272 263 264 265 264 271 287 281 277 283 290 297 305 311 316
67 84 97 62 61 50 45 48 76 74 64 98 102 105 120 102 133 142 146 152 160 166 170 175 188 202 221 239 250 257 258 258 257 257 265 290 310 298 289 283 274 267 263 265 269 268 274 276 278 287 295 299 300 305
55 49 94 74 67 33 31 80 96 94 88 99 108 108 96 102 111 125 133 143 153 164 176 193 211 230 242 247 250 251 251 250 251 256 289 326 335 316 296 286 280 272 267 264 262 266 273 280 287 289 292 297 303 307
63 76 81 64 85 91 102 99 91 81 76 66 80 102 112 111 107 109 127 151 175 204 228 247 254 253 242 237 235 247 258 267 260 231 133 63 2 334 314 300 296 289 284 280 277 274 274 276 280 287 295 302 307 312
36 57 104 97 117 149 115 71 76 80 69 67 61 76 91 96 98 107 98 84 299 286 273 257 252 247 243 245 247 241 255 289 240 201 183 136 32 18 355 356 350 331 315 304 295 287 284 285 291 297 301 307 312 316
72 66 83 100 116 155 130 128 88 91 65 70 61 55 61 71 88 103 63 3 317 279 253 225 223 233 243 249 250 253 252 253 249 240 237 245 290 312 301 289 281 289 293 292 290 288 286 285 285 288 292 294 300 307
Height
1490 1492 1494 1494 1492 1493 1495 1495 1499 1502 1506 1509 1514 1517 1519 1523 1527 1531 1533 1537 1540 1536 1533 1537 1536 1537 1537 1539 1540 1542 1547 1549 1552 1554 1553 1553 1554 1554 1554 1553 1557 1557 1564 1570 1570 1573 1559 1535 1539 1542 1537 1535 1536 1534
1485 1489 1492 1491 1491 1491 1491 1493 1494 1496 1499 1503 1507 1510 1511 1515 1520 1524 1525 1529 1532 1534 1528 1528 1529 1530 1531 1533 1535 1537 1537 1536 1540 1546 1551 1551 1551 1558 1555 1549 1551 1552 1542 1547 1547 1540 1533 1533 1533 1533 1533 1533 1533 1534
1482 1483 1486 1487 1487 1489 1489 1489 1491 1492 1494 1497 1501 1504 1505 1509 1512 1514 1516 1520 1524 1523 1525 1524 1525 1525 1526 1528 1529 1532 1533 1534 1536 1537 1541 1544 1544 1546 1550 1551 1544 1540 1538 1540 1537 1530 1530 1532 1532 1532 1532 1534 1533 1533
1477 1476 1480 1482 1484 1486 1486 1486 1488 1490 1491 1493 1497 1499 1503 1503 1505 1509 1511 1513 1518 1520 1520 1521 1521 1522 1523 1525 1527 1528 1529 1531 1534 1536 1538 1540 1540 1540 1542 1540 1542 1535 1535 1534 1533 1529 1529 1530 1531 1531 1532 1532 1531 1529
1470 1471 1476 1477 1479 1482 1484 1484 1485 1490 1488 1490 1493 1497 1499 1502 1502 1506 1509 1509 1512 1518 1517 1519 1520 1520 1521 1522 1524 1526 1528 1529 1531 1535 1536 1537 1537 1538 1537 1539 1534 1527 1526 1530 1527 1527 1527 1529 1530 1530 1530 1530 1528 1525
1466 1469 1471 1472 1475 1478 1482 1483 1485 1488 1490 1491 1492 1495 1498 1500 1502 1505 1507 1510 1510 1512 1515 1519 1523 1521 1522 1523 1523 1525 1527 1528 1529 1531 1533 1533 1535 1537 1536 1536 1523 1521 1522 1523 1524 1526 1527 1528 1528 1528 1528 1529 1527 1525
1462 1465 1468 1469 1470 1475 1479 1482 1483 1486 1489 1491 1492 1492 1497 1498 1500 1503 1506 1508 1508 1511 1514 1520 1522 1523 1524 1524 1524 1526 1528 1529 1529 1529 1530 1531 1532 1536 1533 1529 1521 1521 1521 1522 1523 1525 1526 1527 1527 1527 1526 1526 1524 1521
1456 1460 1462 1466 1467 1471 1476 1480 1482 1486 1488 1490 1491 1492 1495 1498 1500 1502 1505 1507 1509 1511 1514 1517 1522 1524 1525 1525 1526 1526 1527 1529 1529 1529 1530 1530 1530 1530 1526 1518 1519 1521 1521 1522 1523 1524 1525 1526 1526 1525 1525 1522 1520 1519
1451 1454 1458 1462 1465 1469 1475 1478 1480 1484 1487 1488 1489 1492 1496 1499 1499 1500 1503 1505 1508 1513 1511 1515 1515 1520 1523 1526 1527 1529 1529 1529 1530 1529 1529 1530 1528 1524 1512 1513 1516 1519 1520 1520 1522 1523 1524 1524 1524 1523 1522 1520 1518 1516
1444 1450 1453 1457 1462 1466 1471 1474 1479 1483 1485 1487 1490 1493 1494 1495 1498 1501 1504 1506 1506 1506 1506 1510 1513 1517 1521 1524 1527 1530 1531 1530 1534 1528 1527 1527 1518 1512 1512 1513 1515 1516 1518 1519 1520 1521 1522 1521 1522 1521 1519 1517 1515 1513
1440 1444 1450 1453 1457 1462 1467 1472 1476 1479 1484 1487 1487 1490 1493 1495 1499 1501 1503 1503 1504 1504 1505 1507 1509 1513 1520 1522 1526 1529 1530 1533 1538 1528 1528 1524 1515 1509 1511 1513 1515 1515 1517 1518 1519 1520 1520 1520 1520 1518 1515 1513 1511 1509
1434 1439 1445 1449 1453 1458 1465 1468 1474 1478 1481 1483 1485 1489 1494 1496 1497 1499 1501 1505 1502 1501 1502 1504 1507 1510 1515 1519 1522 1527 1529 1532 1530 1525 1527 1519 1507 1508 1511 1513 1514 1515 1516 1518 1518 1519 1518 1519 1518 1516 1514 1512 1508 1505
1428 1435 1442 1447 1451 1455 1462 1466 1470 1476 1478 1483 1485 1488 1490 1496 1497 1493 1497 1500 1500 1495 1497 1500 1505 1508 1513 1516 1520 1524 1527 1529 1528 1529 1518 1507 1507 1508 1511 1513 1515 1515 1515 1516 1517 1517 1517 1517 1514 1512 1511 1510 1507 1503
1426 1433 1440 1444 1448 1454 1458 1462 1468 1474 1476 1482 1482 1487 1488 1492 1488 1483 1484 1485 1488 1489 1492 1497 1502 1506 1510 1515 1518 1521 1524 1524 1530 1530 1510 1504 1505 1507 1511 1513 1516 1516 1516 1515 1515 1515 1515 1516 1513 1511 1509 1507 1503 1499
1423 1430 1435 1440 1446 1451 1454 1459 1465 1471 1475 1478 1478 1479 1482 1482 1482 1484 1484 1487 1487 1488 1492 1498 1503 1506 1511 1515 1516 1520 1525 1524 1516 1506 1503 1502 1505 1507 1510 1513 1514 1514 1515 1514 1514 1512 1513 1513 1512 1510 1507 1504 1500 1497
1422 1429 1433 1440 1444 1448 1452 1457 1463 1469 1471 1475 1477 1478 1479 1479 1483 1485 1486 1486 1486 1490 1495 1498 1502 1507 1509 1511 1518 1513 1514 1510 1502 1500 1500 1503 1506 1508 1511 1513 1513 1514 1513 1511 1511 1511 1511 1510 1510 1507 1505 1501 1498 1496
1419 1422 1431 1439 1444 1447 1453 1457 1462 1467 1470 1473 1476 1477 1476 1478 1480 1484 1484 1485 1489 1493 1493 1496 1501 1499 1508 1514 1513 1506 1504 1498 1496 1499 1500 1504 1506 1506 1509 1512 1513 1513 1512 1511 1510 1509 1510 1509 1506 1504 1503 1500 1498 1495
1416 1424 1430 1434 1440 1446 1452 1457 1461 1465 1469 1473 1476 1477 1479 1480 1481 1485 1487 1488 1490 1491 1492 1496 1498 1501 1499 1499 1498 1497 1499 1499 1499 1501 1504 1505 1506 1508 1509 1510 1511 1512 1510 1510 1510 1509 1508 1506 1504 1503 1501 1499 1497 1495
1418 1424 1431 1436 1441 1447 1453 1459 1462 1465 1472 1474 1475 1477 1479 1481 1483 1485 1487 1487 1487 1489 1492 1495 1498 1497 1495 1495 1494 1495 1497 1499 1501 1503 1505 1506 1507 1507 1508 1509 1510 1510 1508 1510 1509 1507 1506 1504 1503 1501 1500 1498 1496 1493
1422 1427 1431 1436 1442 1446 1453 1460 1463 1466 1473 1476 1478 1480 1480 1482 1483 1483 1484 1486 1488 1491 1492 1492 1493 1492 1492 1494 1495 1495 1498 1500 1502 1503 1505 1505 1507 1508 1507 1507 1508 1509 1509 1508 1507 1505 1504 1503 1502 1501 1499 1497 1495 1494
1421 1427 1433 1438 1442 1448 1456 1461 1466 1470 1474 1476 1479 1479 1481 1482 1482 1483 1485 1487 1489 1490 1490 1490 1491 1492 1492 1494 1496 1497 1499 1501 1502 1504 1505 1505 1507 1507 1506 1505 1507 1508 1507 1506 1505 1504 1503 1502 1501 1500 1498 1497 1495 1493
1423 1429 1434 1438 1443 1451 1457 1462 1467 1471 1475 1477 1478 1480 1482 1483 1483 1484 1485 1487 1487 1487 1488 1489 1490 1492 1493 1495 1497 1498 1500 1501 1502 1503 1504 1505 1505 1505 1505 1505 1505 1505 1505 1505 1504 1503 1502 1501 1500 1499 1498 1496 1495 1493
1428 1433 1437 1443 1450 1456 1466 1465 1468 1471 1474 1478 1479 1481 1483 1484 1484 1485 1485 1486 1486 1486 1487 1489 1490 1492 1494 1495 1497 1499 1500 1501 1502 1503 1503 1504 1504 1505 1504 1503 1503 1503 1504 1503 1503 1502 1501 1500 1499 1498 1497 1496 1494 1493
1429 1434 1442 1447 1452 1461 1465 1466 1469 1472 1476 1478 1480 1484 1484 1483 1484 1484 1485 1486 1486 1486 1488 1489 1491 1493 1495 1496 1498 1499 1500 1500 1501 1502 1503 1503 1503 1503 1502 1502 1502 1502 1502 1502 1501 1500 1500 1499 1499 1498 1497 1496 1495 1494
1433 1447 1448 1452 1456 1459 1464 1467 1469 1472 1478 1479 1481 1482 1482 1483 1483 1485 1484 1486 1486 1487 1489 1491 1493 1494 1495 1496 1498 1498 1498 1500 1501 1501 1501 1501 1501 1501 1501 1500 1500 1501 1501 1501 1500 1500 1499 1499 1498 1498 1497 1497 1496 1494
1444 1452 1453 1455 1457 1459 1463 1467 1468 1471 1473 1477 1479 1480 1481 1482 1483 1485 1486 1486 1487 1488 1490 1492 1494 1495 1495 1496 1496 1497 1499 1500 1500 1500 1499 1499 1499 1499 1499 1499 1499 1500 1500 1500 1499 1499 1498 1498 1498 1497 1497 1496 1495 1494
1450 1455 1456 1457 1459 1460 1462 1465 1468 1469 1472 1477 1478 1480 1481 1483 1485 1487 1486 1487 1488 1489 1491 1492 1493 1494 1495 1496 1497 1498 1499 1499 1498 1498 1498 1498 1498 1497 1497 1497 1498 1498 1498 1498 1498 1497 1497 1497 1497 1497 1496 1495 1495 1494
1453 1456 1457 1460 1460 1462 1465 1467 1470 1474 1476 1477 1478 1481 1481 1483 1486 1487 1487 1488 1489 1490 1491 1493 1494 1495 1496 1497 1497 1497 1497 1497 1497 1497 1497 1497 1496 1496 1496 1496 1497 1497 1497 1496 1496 1496 1496 1496 1496 1495 1495 1494 1494 1493
1457 1459 1461 1464 1466 1468 1473 1475 1477 1478 1478 1479 1479 1483 1485 1485 1486 1486 1488 1488 1490 1491 1492 1493 1494 1495 1496 1496 1496 1495 1495 1495 1496 1496 1495 1495 1495 1495 1495 1495 1495 1495 1495 1495 1495 1495 1495 1495 1494 1494 1493 1492 1492 1491
1462 1462 1463 1468 1472 1478 1478 1477 1478 1479 1479 1479 1481 1483 1485 1486 1487 1488 1489 1490 1491 1492 1493 1494 1494 1494 1494 1494 1494 1494 1494 1494 1494 1494 1494 1494 1494 1494 1494 1493 1493 1492 1492 1493 1493 1493 1493 1492 1492 1491 1491 1490 1490 1489
1463 1464 1466 1472 1477 1481 1481 1481 1481 1481 1481 1482 1482 1483 1485 1488 1489 1490 1490 1491 1492 1492 1493 1493 1493 1493 1493 1493 1493 1493 1493 1493 1493 1493 1494 1494 1494 1493 1492 1492 1492 1491 1491 1491 1491 1491 1490 1490 1489 1489 1489 1488 1488 1486
1465 1466 1468 1475 1481 1483 1482 1483 1483 1483 1484 1485 1486 1487 1488 1489 1490 1491 1491 1491 1491 1491 1491 1492 1492 1492 1492 1492 1492 1492 1492 1492 1492 1493 1494 1494 1493 1493 1492 1491 1491 1490 1490 1490 1489 1489 1489 1488 1488 1487 1487 1486 1485 1483
1470 1470 1472 1476 1480 1482 1483 1483 1483 1485 1486 1487 1488 1488 1489 1490 1491 1492 1492 1492 1492 1491 1491 1491 1491 1491 1491 1491 1491 1491 1491 1492 1492 1492 1492 1493 1493 1492 1491 1490 1490 1489 1489 1488 1488 1487 1486 1486 1485 1484 1483 1482 1481 1479